User: anonymous   Login
Location: Baili�vre
(50.0696°N, 4.2409°E)
Time: 16:14:21
(UTC+00:00)
Language:

Cosmos 1356 - Orbit

View from above orbital plane
View from above orbital plane
View from above satellite
View from above satellite

Ground track
Ground track

The orbit data is extracted from the following two-line orbital elements,

1 13153U 82039A   20292.86991669 +.00002612 +00000-0 +63524-4 0  9999
2 13153 081.0925 207.7502 0002382 156.2864 203.8488 15.40579371106912
Epoch (UTC): 18 October 2020 20:52:40
Eccentricity: 0.0002382
inclination: 81.0925°
perigee height: 443 km
apogee height: 446 km
right ascension of ascending node: 207.7502°
argument of perigee: 156.2864°
revolutions per day: 15.40579371
mean anomaly at epoch: 203.8488°
orbit number at epoch: 10691

The dashed part of the orbit path shows where the satellite is in the earth's shadow,  

DLR